| time (UTC) | temp F | wind direction | speed MPH | gust MPH | rain 1hr in | rain 24hr in | rain mn in | humidity % | barometer mb |
| 20260831231503 | 64 | 131 | 0.0 | 2.0 | 0.00 | 0.02 | 0.00 | 52 | |
| 20260831231003 | 65 | 135 | 0.0 | 2.0 | 0.00 | 0.02 | 0.00 | 52 | |
| 20260831230503 | 65 | 149 | 0.0 | 1.0 | 0.00 | 0.07 | 0.00 | 52 | |
| 20260831230003 | 65 | 145 | 0.0 | 2.0 | 0.00 | 0.07 | 0.00 | 52 | |
| 20260831225503 | 65 | 137 | 0.0 | 2.0 | 0.00 | 0.09 | 0.00 | 52 | |
| 20260831225003 | 65 | 147 | 1.0 | 2.0 | 0.00 | 0.09 | 0.00 | 52 | |
| 20260831224503 | 65 | 158 | 0.0 | 2.0 | 0.00 | 0.09 | 0.00 | 52 | |
| 20260831224003 | 65 | 135 | 0.0 | 1.0 | 0.00 | 0.09 | 0.00 | 51 | |
| 20260831223503 | 65 | 135 | 0.0 | 1.0 | 0.00 | 0.09 | 0.00 | 50 | |
| 20260831223003 | 65 | 135 | 0.0 | 2.0 | 0.00 | 0.09 | 0.00 | 50 | |
| 20260831222503 | 66 | 135 | 0.0 | 2.0 | 0.00 | 0.09 | 0.00 | 50 | |
| 20260831222003 | 66 | 162 | 0.0 | 1.0 | 0.00 | 0.09 | 0.00 | 50 | |
| 20260831221503 | 66 | 176 | 0.0 | 2.0 | 0.00 | 0.09 | 0.00 | 51 | |
| 20260831221003 | 66 | 180 | 0.0 | 2.0 | 0.00 | 0.11 | 0.00 | 51 | |
| 20260831220503 | 65 | 165 | 0.0 | 2.0 | 0.00 | 0.22 | 0.00 | 51 | |
| 20260831220003 | 65 | 151 | 0.0 | 2.0 | 0.00 | 0.22 | 0.00 | 51 | |
| 20260831215503 | 65 | 270 | 0.0 | 1.0 | 0.00 | 0.26 | 0.22 | 50 | |
| 20260831215003 | 65 | 280 | 0.0 | 2.0 | 0.00 | 0.26 | 0.22 | 50 | |
| 20260831214503 | 65 | 275 | 0.0 | 2.0 | 0.00 | 0.26 | 0.22 | 49 | |
| 20260831214003 | 66 | 270 | 1.0 | 2.0 | 0.00 | 0.26 | 0.22 | 49 | |
| 20260831213503 | 66 | 270 | 0.0 | 2.0 | 0.00 | 0.26 | 0.22 | 49 | |
| 20260831213003 | 66 | 268 | 0.0 | 2.0 | 0.00 | 0.26 | 0.22 | 48 | |
| 20260831212503 | 66 | 257 | 0.0 | 2.0 | 0.00 | 0.26 | 0.22 | 49 | |
| 20260831212003 | 66 | 259 | 0.0 | 1.0 | 0.00 | 0.26 | 0.22 | 48 | |
| 20260831211503 | 66 | 299 | 0.0 | 1.0 | 0.00 | 0.26 | 0.22 | 48 | |
| 20260831211003 | 66 | 315 | 0.0 | 1.0 | 0.00 | 0.26 | 0.22 | 48 | |
| 20260831210503 | 66 | 315 | 0.0 | 1.0 | 0.00 | 0.26 | 0.22 | 46 | |
| 20260831210003 | 66 | 315 | 0.0 | 1.0 | 0.00 | 0.26 | 0.22 | 46 | |
| 20260831205503 | 67 | 135 | 0.0 | 1.0 | 0.00 | 0.26 | 0.22 | 44 | |
| 20260831205003 | 67 | 202 | 0.0 | 1.0 | 0.00 | 0.26 | 0.22 | 44 | |
| 20260831204503 | 67 | 270 | 0.0 | 1.0 | 0.00 | 0.26 | 0.22 | 44 | |
| 20260831204003 | 67 | 117 | 0.0 | 1.0 | 0.00 | 0.26 | 0.22 | 43 | |
| 20260831203503 | 67 | 129 | 0.0 | 1.0 | 0.00 | 0.26 | 0.22 | 43 | |
| 20260831203003 | 68 | 143 | 0.0 | 2.0 | 0.00 | 0.26 | 0.22 | 42 | |
| 20260831202503 | 68 | 140 | 0.0 | 2.0 | 0.00 | 0.26 | 0.22 | 42 | |
| 20260831202003 | 68 | 142 | 0.0 | 2.0 | 0.00 | 0.26 | 0.22 | 41 | |
| 20260831201503 | 68 | 138 | 0.0 | 2.0 | 0.00 | 0.26 | 0.22 | 41 | |
| 20260831201003 | 69 | 135 | 0.0 | 2.0 | 0.00 | 0.26 | 0.22 | 41 | |
| 20260831200503 | 69 | 135 | 0.0 | 2.0 | 0.00 | 0.26 | 0.22 | 41 | |
| 20260831200003 | 69 | 140 | 0.0 | 2.0 | 0.00 | 0.26 | 0.22 | 41 | |
| 20260831195503 | 69 | 180 | 0.0 | 1.0 | 0.00 | 0.26 | 0.22 | 39 | |
| 20260831195003 | 69 | 0 | 0.0 | 0.0 | 0.00 | 0.26 | 0.22 | 37 | |
| 20260831194503 | 69 | 0 | 0.0 | 0.0 | 0.00 | 0.26 | 0.22 | 36 | |
| 20260831194003 | 69 | 0 | 0.0 | 0.0 | 0.00 | 0.26 | 0.22 | 35 | |
| 20260831193503 | 70 | 0 | 0.0 | 0.0 | 0.00 | 0.26 | 0.22 | 34 | |
| 20260831193003 | 70 | 135 | 0.0 | 1.0 | 0.00 | 0.26 | 0.22 | 33 | |
| 20260831192503 | 71 | 149 | 0.0 | 2.0 | 0.00 | 0.26 | 0.22 | 33 | |
| 20260831192003 | 71 | 135 | 0.0 | 2.0 | 0.00 | 0.26 | 0.22 | 32 | |
| 20260831191503 | 71 | 136 | 1.0 | 2.0 | 0.00 | 0.26 | 0.22 | 32 | |
| 20260831191003 | 71 | 201 | 0.0 | 2.0 | 0.00 | 0.26 | 0.22 | 32 | |
| 20260831190503 | 71 | 215 | 0.0 | 1.0 | 0.00 | 0.26 | 0.22 | 30 | |
| 20260831190003 | 71 | 177 | 0.0 | 2.0 | 0.00 | 0.26 | 0.22 | 30 | |
| 20260831185503 | 72 | 182 | 0.0 | 2.0 | 0.00 | 0.26 | 0.22 | 29 | |
| 20260831185003 | 72 | 185 | 0.0 | 2.0 | 0.00 | 0.26 | 0.22 | 29 | |
| 20260831184503 | 72 | 184 | 0.0 | 2.0 | 0.00 | 0.26 | 0.22 | 28 | |
| 20260831184003 | 73 | 219 | 0.0 | 2.0 | 0.00 | 0.26 | 0.22 | 28 | |
| 20260831183503 | 73 | 237 | 0.0 | 2.0 | 0.00 | 0.26 | 0.22 | 27 | |
| 20260831183003 | 73 | 258 | 0.0 | 2.0 | 0.00 | 0.26 | 0.22 | 27 | |
| 20260831182503 | 73 | 261 | 1.0 | 3.0 | 0.00 | 0.26 | 0.22 | 27 | |
| 20260831182003 | 73 | 258 | 1.0 | 4.0 | 0.00 | 0.26 | 0.22 | 27 | |
| 20260831181503 | 73 | 245 | 2.0 | 4.0 | 0.00 | 0.26 | 0.22 | 26 | |
| 20260831181003 | 74 | 228 | 2.0 | 3.0 | 0.00 | 0.26 | 0.22 | 25 | |
| 20260831180503 | 74 | 234 | 1.0 | 4.0 | 0.00 | 0.26 | 0.22 | 25 | |
| 20260831180003 | 74 | 251 | 1.0 | 6.0 | 0.00 | 0.26 | 0.22 | 25 | |
| 20260831175503 | 74 | 259 | 2.0 | 6.0 | 0.00 | 0.26 | 0.22 | 24 | |
| 20260831175003 | 75 | 272 | 3.0 | 6.0 | 0.00 | 0.26 | 0.22 | 23 | |
| 20260831174503 | 75 | 296 | 3.0 | 6.0 | 0.00 | 0.26 | 0.22 | 23 | |
| 20260831174003 | 75 | 306 | 2.0 | 8.0 | 0.00 | 0.26 | 0.22 | 22 | |
| 20260831173503 | 76 | 291 | 3.0 | 8.0 | 0.00 | 0.26 | 0.22 | 21 | |
| 20260831173003 | 76 | 260 | 1.0 | 4.0 | 0.00 | 0.26 | 0.22 | 21 | |
| 20260831172503 | 76 | 260 | 1.0 | 7.0 | 0.00 | 0.26 | 0.22 | 20 | |
| 20260831172003 | 76 | 260 | 2.0 | 7.0 | 0.00 | 0.26 | 0.22 | 20 | |
| 20260831171503 | 77 | 258 | 2.0 | 6.0 | 0.00 | 0.26 | 0.22 | 20 | |
| 20260831171003 | 77 | 238 | 2.0 | 6.0 | 0.00 | 0.26 | 0.22 | 20 | |
| 20260831170504 | 77 | 250 | 2.0 | 8.0 | 0.00 | 0.26 | 0.22 | 19 | |
| 20260831170003 | 77 | 259 | 2.0 | 8.0 | 0.00 | 0.26 | 0.22 | 19 | |
| 20260831165503 | 77 | 276 | 3.0 | 8.0 | 0.00 | 0.26 | 0.22 | 19 | |
| 20260831165003 | 78 | 290 | 3.0 | 8.0 | 0.00 | 0.26 | 0.22 | 18 | |
| 20260831164503 | 78 | 272 | 2.0 | 8.0 | 0.00 | 0.26 | 0.22 | 19 | |
| 20260831164003 | 78 | 273 | 3.0 | 9.0 | 0.00 | 0.26 | 0.22 | 19 | |
| 20260831163503 | 78 | 279 | 2.0 | 10.0 | 0.00 | 0.26 | 0.22 | 17 | |
| 20260831163003 | 78 | 283 | 2.0 | 11.0 | 0.00 | 0.26 | 0.22 | 18 | |
| 20260831162503 | 78 | 292 | 5.0 | 11.0 | 0.00 | 0.26 | 0.22 | 17 | |
| 20260831162003 | 79 | 270 | 5.0 | 8.0 | 0.00 | 0.26 | 0.22 | 15 | |
| 20260831161503 | 80 | 283 | 3.0 | 11.0 | 0.00 | 0.26 | 0.22 | 16 | |
| 20260831161003 | 80 | 313 | 2.0 | 11.0 | 0.00 | 0.26 | 0.22 | 16 | |
| 20260831160503 | 81 | 295 | 4.0 | 10.0 | 0.00 | 0.26 | 0.22 | 16 | |
| 20260831160003 | 81 | 271 | 4.0 | 11.0 | 0.00 | 0.26 | 0.22 | 16 | |
| 20260831155503 | 81 | 296 | 2.0 | 11.0 | 0.00 | 0.26 | 0.22 | 16 | |
| 20260831155003 | 82 | 299 | 2.0 | 9.0 | 0.00 | 0.26 | 0.22 | 17 | |
| 20260831154503 | 82 | 269 | 2.0 | 10.0 | 0.00 | 0.26 | 0.22 | 17 | |
| 20260831154003 | 81 | 279 | 2.0 | 10.0 | 0.00 | 0.26 | 0.22 | 17 | |
| 20260831153503 | 81 | 317 | 3.0 | 11.0 | 0.00 | 0.26 | 0.22 | 17 | |
| 20260831153003 | 80 | 320 | 4.0 | 11.0 | 0.00 | 0.26 | 0.22 | 17 | |
| 20260831152503 | 81 | 279 | 7.0 | 12.0 | 0.00 | 0.26 | 0.22 | 17 | |
| 20260831152003 | 81 | 248 | 4.0 | 12.0 | 0.00 | 0.26 | 0.22 | 18 | |
| 20260831151503 | 81 | 232 | 4.0 | 12.0 | 0.00 | 0.26 | 0.22 | 18 | |
| 20260831151003 | 81 | 222 | 2.0 | 8.0 | 0.00 | 0.26 | 0.22 | 19 | |
| 20260831150503 | 81 | 217 | 3.0 | 11.0 | 0.00 | 0.26 | 0.22 | 19 | |
| 20260831150003 | 81 | 248 | 3.0 | 11.0 | 0.00 | 0.26 | 0.22 | 19 | |
| 20260831145503 | 81 | 271 | 3.0 | 10.0 | 0.00 | 0.26 | 0.22 | 20 | |
| 20260831145003 | 81 | 271 | 3.0 | 15.0 | 0.00 | 0.26 | 0.22 | 20 | |
| 20260831144503 | 81 | 276 | 4.0 | 15.0 | 0.00 | 0.26 | 0.22 | 19 | |
| 20260831144003 | 81 | 288 | 3.0 | 15.0 | 0.00 | 0.26 | 0.22 | 18 | |
| 20260831143503 | 81 | 285 | 4.0 | 15.0 | 0.00 | 0.26 | 0.22 | 20 | |
| 20260831143003 | 81 | 286 | 6.0 | 15.0 | 0.00 | 0.26 | 0.22 | 19 | |
| 20260831142503 | 82 | 287 | 2.0 | 11.0 | 0.00 | 0.26 | 0.22 | 20 | |
| 20260831142003 | 82 | 291 | 4.0 | 8.0 | 0.00 | 0.26 | 0.22 | 19 | |
| 20260831141503 | 82 | 276 | 4.0 | 10.0 | 0.00 | 0.26 | 0.22 | 18 | |
| 20260831141003 | 82 | 239 | 4.0 | 10.0 | 0.00 | 0.26 | 0.22 | 17 | |
| 20260831140503 | 83 | 240 | 2.0 | 6.0 | 0.00 | 0.26 | 0.22 | 18 | |
| 20260831140003 | 83 | 295 | 2.0 | 7.0 | 0.00 | 0.26 | 0.22 | 18 | |
| 20260831135503 | 84 | 300 | 2.0 | 7.0 | 0.00 | 0.26 | 0.22 | 17 | |
| 20260831135003 | 84 | 286 | 3.0 | 7.0 | 0.00 | 0.26 | 0.22 | 17 | |
| 20260831134503 | 83 | 291 | 2.0 | 9.0 | 0.00 | 0.26 | 0.22 | 19 | |
| 20260831134003 | 82 | 318 | 2.0 | 11.0 | 0.00 | 0.26 | 0.22 | 19 | |
| 20260831133503 | 82 | 309 | 2.0 | 11.0 | 0.00 | 0.26 | 0.22 | 18 | |
| 20260831133003 | 82 | 288 | 4.0 | 11.0 | 0.00 | 0.26 | 0.22 | 16 | |
| 20260831132503 | 83 | 265 | 4.0 | 11.0 | 0.00 | 0.26 | 0.22 | 16 | |
| 20260831132003 | 83 | 260 | 4.0 | 11.0 | 0.00 | 0.26 | 0.22 | 15 | |
| 20260831131503 | 83 | 276 | 4.0 | 8.0 | 0.00 | 0.26 | 0.22 | 15 | |
| 20260831131004 | 83 | 279 | 2.0 | 6.0 | 0.00 | 0.26 | 0.22 | 16 | |
| 20260831130503 | 83 | 263 | 2.0 | 6.0 | 0.00 | 0.26 | 0.22 | 16 | |
| 20260831130003 | 83 | 245 | 2.0 | 7.0 | 0.00 | 0.26 | 0.22 | 16 | |
| 20260831125503 | 82 | 297 | 2.0 | 7.0 | 0.00 | 0.26 | 0.22 | 16 | |
| 20260831125003 | 82 | 307 | 4.0 | 8.0 | 0.00 | 0.26 | 0.22 | 16 | |
| 20260831124503 | 81 | 269 | 3.0 | 8.0 | 0.00 | 0.26 | 0.22 | 16 | |
| 20260831124003 | 81 | 261 | 3.0 | 8.0 | 0.00 | 0.26 | 0.22 | 18 | |
| 20260831123503 | 81 | 262 | 2.0 | 8.0 | 0.00 | 0.26 | 0.22 | 18 | |
| 20260831123003 | 82 | 261 | 4.0 | 8.0 | 0.00 | 0.26 | 0.22 | 17 | |
| 20260831122503 | 82 | 309 | 3.0 | 8.0 | 0.00 | 0.26 | 0.22 | 19 | |
| 20260831122003 | 81 | 313 | 2.0 | 8.0 | 0.00 | 0.26 | 0.22 | 19 | |
| 20260831121503 | 80 | 322 | 4.0 | 10.0 | 0.00 | 0.26 | 0.22 | 19 | |
| 20260831121003 | 80 | 357 | 3.0 | 10.0 | 0.00 | 0.26 | 0.22 | 20 | |
| 20260831120503 | 80 | 329 | 3.0 | 11.0 | 0.00 | 0.26 | 0.22 | 20 | |
| 20260831120003 | 80 | 283 | 3.0 | 11.0 | 0.00 | 0.26 | 0.22 | 20 | |
| 20260831115503 | 79 | 287 | 4.0 | 9.0 | 0.00 | 0.26 | 0.22 | 21 | |
| 20260831115003 | 79 | 300 | 4.0 | 10.0 | 0.00 | 0.26 | 0.22 | 20 | |
| 20260831114503 | 79 | 302 | 2.0 | 10.0 | 0.00 | 0.26 | 0.22 | 20 | |
| 20260831114003 | 79 | 277 | 3.0 | 9.0 | 0.00 | 0.26 | 0.22 | 20 | |
| 20260831113503 | 79 | 283 | 4.0 | 8.0 | 0.00 | 0.26 | 0.22 | 21 | |
| 20260831113003 | 78 | 294 | 4.0 | 8.0 | 0.00 | 0.26 | 0.22 | 22 | |
| 20260831112503 | 78 | 295 | 3.0 | 11.0 | 0.00 | 0.26 | 0.22 | 22 | |
| 20260831112003 | 78 | 305 | 2.0 | 11.0 | 0.00 | 0.26 | 0.22 | 22 | |
| 20260831111503 | 78 | 266 | 4.0 | 11.0 | 0.00 | 0.26 | 0.22 | 21 | |
| 20260831111003 | 78 | 253 | 3.0 | 10.0 | 0.00 | 0.26 | 0.22 | 22 | |
| 20260831110503 | 79 | 246 | 0.0 | 5.0 | 0.00 | 0.26 | 0.22 | 24 | |
| 20260831110003 | 79 | 241 | 0.0 | 7.0 | 0.00 | 0.26 | 0.22 | 24 | |
| 20260831105503 | 79 | 264 | 2.0 | 9.0 | 0.00 | 0.26 | 0.22 | 24 | |
| 20260831105003 | 78 | 281 | 1.0 | 9.0 | 0.00 | 0.26 | 0.22 | 24 | |
| 20260831104503 | 78 | 283 | 2.0 | 8.0 | 0.00 | 0.26 | 0.22 | 23 | |
| 20260831104003 | 78 | 302 | 2.0 | 8.0 | 0.00 | 0.26 | 0.22 | 25 | |
| 20260831103503 | 78 | 329 | 4.0 | 8.0 | 0.00 | 0.26 | 0.22 | 25 | |
| 20260831103003 | 78 | 285 | 2.0 | 8.0 | 0.00 | 0.26 | 0.22 | 26 | |
| 20260831102503 | 78 | 291 | 2.0 | 8.0 | 0.00 | 0.26 | 0.22 | 27 | |
| 20260831102003 | 78 | 296 | 4.0 | 8.0 | 0.00 | 0.26 | 0.22 | 26 | |
| 20260831101503 | 78 | 249 | 3.0 | 6.0 | 0.00 | 0.26 | 0.22 | 28 | |
| 20260831101003 | 77 | 189 | 2.0 | 3.0 | 0.00 | 0.26 | 0.22 | 29 | |
| 20260831100503 | 75 | 218 | 2.0 | 8.0 | 0.00 | 0.26 | 0.22 | 33 | |
| 20260831100003 | 75 | 266 | 2.0 | 8.0 | 0.00 | 0.26 | 0.22 | 33 | |
| 20260831095503 | 75 | 263 | 3.0 | 9.0 | 0.00 | 0.26 | 0.22 | 32 | |
| 20260831095003 | 74 | 250 | 2.0 | 13.0 | 0.00 | 0.26 | 0.22 | 33 | |
| 20260831094503 | 73 | 263 | 2.0 | 13.0 | 0.00 | 0.26 | 0.22 | 35 | |
| 20260831094003 | 73 | 318 | 2.0 | 10.0 | 0.00 | 0.26 | 0.22 | 35 | |
| 20260831093503 | 73 | 294 | 2.0 | 10.0 | 0.00 | 0.26 | 0.22 | 34 | |
| 20260831093003 | 73 | 285 | 2.0 | 9.0 | 0.00 | 0.26 | 0.22 | 37 | |
| 20260831092503 | 72 | 274 | 2.0 | 11.0 | 0.00 | 0.26 | 0.22 | 38 | |
| 20260831092003 | 72 | 286 | 2.0 | 11.0 | 0.00 | 0.26 | 0.22 | 38 | |
| 20260831091503 | 72 | 270 | 4.0 | 11.0 | 0.00 | 0.26 | 0.22 | 37 | |
| 20260831091003 | 72 | 242 | 5.0 | 9.0 | 0.00 | 0.26 | 0.22 | 37 | |
| 20260831090503 | 73 | 224 | 3.0 | 7.0 | 0.00 | 0.26 | 0.22 | 39 | |
| 20260831090003 | 73 | 254 | 3.0 | 8.0 | 0.00 | 0.26 | 0.22 | 39 | |
| 20260831085503 | 72 | 277 | 3.0 | 8.0 | 0.00 | 0.26 | 0.22 | 40 | |
| 20260831085003 | 72 | 281 | 3.0 | 11.0 | 0.00 | 0.26 | 0.22 | 42 | |
| 20260831084503 | 71 | 294 | 4.0 | 11.0 | 0.00 | 0.26 | 0.22 | 42 | |
| 20260831084003 | 71 | 245 | 3.0 | 8.0 | 0.00 | 0.26 | 0.22 | 45 | |
| 20260831083503 | 71 | 193 | 2.0 | 8.0 | 0.00 | 0.26 | 0.22 | 45 | |
| 20260831083003 | 70 | 251 | 2.0 | 9.0 | 0.00 | 0.26 | 0.22 | 47 | |
| 20260831082503 | 71 | 270 | 4.0 | 9.0 | 0.00 | 0.26 | 0.22 | 46 | |
| 20260831082003 | 71 | 281 | 2.0 | 8.0 | 0.00 | 0.26 | 0.22 | 48 | |
| 20260831081503 | 71 | 278 | 2.0 | 8.0 | 0.00 | 0.26 | 0.22 | 49 | |
| 20260831081003 | 70 | 269 | 3.0 | 8.0 | 0.00 | 0.26 | 0.22 | 49 | |
| 20260831080503 | 70 | 267 | 3.0 | 8.0 | 0.00 | 0.26 | 0.22 | 54 | |
| 20260831080003 | 70 | 257 | 3.0 | 8.0 | 0.00 | 0.26 | 0.22 | 54 | |
| 20260831075503 | 70 | 251 | 4.0 | 6.0 | 0.00 | 0.26 | 0.22 | 56 | |
| 20260831075003 | 69 | 294 | 1.0 | 5.0 | 0.00 | 0.26 | 0.22 | 59 | |
| 20260831074503 | 69 | 284 | 2.0 | 5.0 | 0.00 | 0.26 | 0.22 | 58 | |
| 20260831074003 | 69 | 250 | 2.0 | 4.0 | 0.00 | 0.26 | 0.22 | 58 | |
| 20260831073503 | 69 | 260 | 2.0 | 4.0 | 0.00 | 0.26 | 0.22 | 58 | |
| 20260831073003 | 69 | 260 | 1.0 | 5.0 | 0.00 | 0.26 | 0.22 | 60 | |
| 20260831072503 | 69 | 260 | 2.0 | 5.0 | 0.00 | 0.26 | 0.22 | 59 | |
| 20260831072003 | 69 | 257 | 2.0 | 7.0 | 0.00 | 0.26 | 0.22 | 58 | |
| 20260831071503 | 70 | 251 | 2.0 | 7.0 | 0.00 | 0.26 | 0.22 | 58 | |
| 20260831071003 | 69 | 336 | 1.0 | 3.0 | 0.00 | 0.26 | 0.22 | 60 | |
| 20260831070503 | 68 | 315 | 0.0 | 2.0 | 0.00 | 0.26 | 0.22 | 67 | |
| 20260831070003 | 68 | 252 | 0.0 | 3.0 | 0.00 | 0.26 | 0.22 | 67 | |
| 20260831065503 | 67 | 262 | 1.0 | 3.0 | 0.00 | 0.26 | 0.22 | 68 | |
| 20260831065003 | 66 | 266 | 1.0 | 3.0 | 0.00 | 0.26 | 0.22 | 69 | |
| 20260831064503 | 66 | 253 | 0.0 | 3.0 | 0.00 | 0.26 | 0.22 | 71 | |
| 20260831064003 | 66 | 272 | 1.0 | 2.0 | 0.00 | 0.26 | 0.22 | 72 | |
| 20260831063503 | 65 | 269 | 0.0 | 2.0 | 0.00 | 0.26 | 0.22 | 73 | |
| 20260831063003 | 65 | 264 | 0.0 | 3.0 | 0.00 | 0.26 | 0.22 | 74 | |
| 20260831062503 | 65 | 269 | 2.0 | 4.0 | 0.00 | 0.26 | 0.22 | 74 | |
| 20260831062003 | 65 | 264 | 2.0 | 4.0 | 0.00 | 0.26 | 0.22 | 74 | |
| 20260831061503 | 65 | 270 | 2.0 | 3.0 | 0.00 | 0.26 | 0.22 | 76 | |
| 20260831061003 | 64 | 270 | 1.0 | 3.0 | 0.00 | 0.26 | 0.22 | 77 | |
| 20260831060503 | 64 | 270 | 0.0 | 3.0 | 0.00 | 0.26 | 0.22 | 78 | |
| 20260831060003 | 64 | 274 | 0.0 | 4.0 | 0.00 | 0.26 | 0.22 | 78 | |
| 20260831055503 | 64 | 274 | 1.0 | 4.0 | 0.00 | 0.26 | 0.22 | 79 | |
| 20260831055003 | 64 | 266 | 2.0 | 3.0 | 0.00 | 0.26 | 0.22 | 80 | |
| 20260831054503 | 63 | 261 | 1.0 | 2.0 | 0.00 | 0.26 | 0.22 | 80 | |
| 20260831054003 | 63 | 269 | 0.0 | 2.0 | 0.00 | 0.26 | 0.22 | 80 | |
| 20260831053503 | 63 | 270 | 0.0 | 2.0 | 0.00 | 0.26 | 0.22 | 80 | |
| 20260831053003 | 63 | 266 | 0.0 | 2.0 | 0.00 | 0.26 | 0.22 | 80 | |
| 20260831052503 | 63 | 244 | 0.0 | 2.0 | 0.00 | 0.26 | 0.22 | 80 | |
| 20260831052003 | 64 | 193 | 0.0 | 2.0 | 0.00 | 0.26 | 0.22 | 80 | |
| 20260831051503 | 64 | 235 | 0.0 | 2.0 | 0.00 | 0.26 | 0.22 | 79 | |
| 20260831051003 | 64 | 264 | 0.0 | 2.0 | 0.00 | 0.26 | 0.22 | 79 | |
| 20260831050503 | 64 | 265 | 1.0 | 4.0 | 0.00 | 0.26 | 0.22 | 79 | |
| 20260831050003 | 64 | 263 | 1.0 | 4.0 | 0.00 | 0.26 | 0.22 | 79 | |
| 20260831045503 | 64 | 267 | 2.0 | 4.0 | 0.00 | 0.26 | 0.22 | 80 | |
| 20260831045003 | 64 | 277 | 2.0 | 5.0 | 0.00 | 0.26 | 0.22 | 82 | |
| 20260831044503 | 64 | 279 | 2.0 | 5.0 | 0.00 | 0.26 | 0.22 | 85 | |
| 20260831044003 | 64 | 260 | 1.0 | 2.0 | 0.00 | 0.26 | 0.22 | 87 | |
| 20260831043503 | 65 | 191 | 0.0 | 1.0 | 0.00 | 0.26 | 0.22 | 88 | |
| 20260831043003 | 65 | 135 | 0.0 | 1.0 | 0.00 | 0.26 | 0.22 | 88 | |
| 20260831042503 | 65 | 135 | 0.0 | 2.0 | 0.00 | 0.26 | 0.22 | 89 | |
| 20260831042003 | 65 | 135 | 0.0 | 2.0 | 0.00 | 0.26 | 0.22 | 89 | |
| 20260831041503 | 65 | 135 | 0.0 | 2.0 | 0.00 | 0.26 | 0.22 | 90 | |
| 20260831041003 | 65 | 135 | 0.0 | 1.0 | 0.00 | 0.26 | 0.22 | 90 | |
| 20260831040503 | 65 | 135 | 0.0 | 2.0 | 0.00 | 0.26 | 0.22 | 91 | |
| 20260831040003 | 65 | 147 | 0.0 | 3.0 | 0.00 | 0.26 | 0.22 | 91 | |
| 20260831035503 | 65 | 158 | 2.0 | 3.0 | 0.00 | 0.26 | 0.22 | 91 | |
| 20260831035003 | 65 | 145 | 0.0 | 2.0 | 0.00 | 0.26 | 0.22 | 92 | |
| 20260831034503 | 65 | 139 | 1.0 | 2.0 | 0.00 | 0.26 | 0.22 | 93 | |
| 20260831034003 | 65 | 139 | 0.0 | 2.0 | 0.00 | 0.26 | 0.22 | 93 | |
| 20260831033503 | 65 | 137 | 0.0 | 2.0 | 0.00 | 0.26 | 0.22 | 93 | |
| 20260831033003 | 65 | 153 | 0.0 | 2.0 | 0.00 | 0.26 | 0.22 | 93 | |
| 20260831032503 | 66 | 163 | 0.0 | 3.0 | 0.00 | 0.26 | 0.22 | 94 | |
| 20260831032003 | 66 | 144 | 0.0 | 3.0 | 0.00 | 0.26 | 0.22 | 94 | |
| 20260831031503 | 66 | 135 | 0.0 | 2.0 | 0.00 | 0.26 | 0.22 | 94 | |
| 20260831031003 | 66 | 0 | 0.0 | 0.0 | 0.00 | 0.26 | 0.22 | 94 | |
| 20260831030503 | 66 | 135 | 0.0 | 2.0 | 0.00 | 0.26 | 0.22 | 94 | |
| 20260831030003 | 66 | 135 | 0.0 | 2.0 | 0.00 | 0.26 | 0.22 | 94 | |
| 20260831025503 | 66 | 135 | 1.0 | 2.0 | 0.00 | 0.26 | 0.22 | 94 | |
| 20260831025003 | 66 | 0 | 0.0 | 0.0 | 0.00 | 0.26 | 0.22 | 94 | |
| 20260831024503 | 66 | 0 | 0.0 | 0.0 | 0.00 | 0.26 | 0.22 | 94 | |
| 20260831024003 | 66 | 0 | 0.0 | 0.0 | 0.00 | 0.26 | 0.22 | 94 | |
| 20260831023503 | 66 | 225 | 0.0 | 2.0 | 0.00 | 0.26 | 0.22 | 94 | |
| 20260831023003 | 66 | 189 | 0.0 | 2.0 | 0.00 | 0.26 | 0.22 | 95 | |
| 20260831022503 | 66 | 155 | 1.0 | 2.0 | 0.00 | 0.26 | 0.22 | 95 | |
| 20260831022003 | 66 | 135 | 0.0 | 2.0 | 0.00 | 0.26 | 0.22 | 95 | |
| 20260831021503 | 66 | 0 | 0.0 | 0.0 | 0.00 | 0.26 | 0.22 | 95 | |
| 20260831021003 | 66 | 0 | 0.0 | 0.0 | 0.00 | 0.26 | 0.22 | 94 | |
| 20260831020503 | 66 | 360 | 0.0 | 1.0 | 0.00 | 0.26 | 0.22 | 94 | |
| 20260831020003 | 66 | 360 | 0.0 | 1.0 | 0.00 | 0.26 | 0.22 | 94 | |
| 20260831015503 | 66 | 360 | 0.0 | 1.0 | 0.00 | 0.26 | 0.22 | 94 | |
| 20260831015003 | 66 | 360 | 0.0 | 3.0 | 0.00 | 0.26 | 0.22 | 94 | |
| 20260831014503 | 66 | 360 | 0.0 | 3.0 | 0.00 | 0.26 | 0.22 | 94 | |
| 20260831014003 | 66 | 360 | 0.0 | 2.0 | 0.00 | 0.26 | 0.22 | 94 | |
| 20260831013503 | 66 | 360 | 0.0 | 2.0 | 0.00 | 0.26 | 0.22 | 94 | |
| 20260831013003 | 66 | 360 | 0.0 | 2.0 | 0.00 | 0.26 | 0.22 | 94 | |
| 20260831012503 | 66 | 351 | 0.0 | 2.0 | 0.00 | 0.26 | 0.22 | 93 | |
| 20260831012003 | 66 | 200 | 0.0 | 2.0 | 0.00 | 0.26 | 0.22 | 93 | |
| 20260831011503 | 66 | 180 | 0.0 | 1.0 | 0.00 | 0.26 | 0.22 | 93 | |
| 20260831011003 | 66 | 180 | 0.0 | 1.0 | 0.00 | 0.26 | 0.22 | 93 | |
| 20260831010503 | 66 | 186 | 0.0 | 2.0 | 0.00 | 0.26 | 0.22 | 93 | |
| 20260831010003 | 66 | 184 | 0.0 | 2.0 | 0.00 | 0.26 | 0.22 | 93 | |
| 20260831005503 | 66 | 183 | 1.0 | 2.0 | 0.00 | 0.26 | 0.22 | 93 | |
| 20260831005003 | 66 | 184 | 0.0 | 2.0 | 0.00 | 0.26 | 0.22 | 93 | |
| 20260831004503 | 66 | 180 | 0.0 | 2.0 | 0.00 | 0.26 | 0.22 | 93 | |
| 20260831004003 | 66 | 180 | 0.0 | 2.0 | 0.00 | 0.26 | 0.22 | 93 | |
| 20260831003503 | 67 | 180 | 0.0 | 2.0 | 0.01 | 0.26 | 0.22 | 93 | |
| 20260831003003 | 67 | 180 | 0.0 | 1.0 | 0.01 | 0.26 | 0.22 | 93 | |
| 20260831002503 | 67 | 180 | 0.0 | 2.0 | 0.01 | 0.26 | 0.22 | 92 | |
| 20260831002003 | 67 | 180 | 0.0 | 2.0 | 0.01 | 0.26 | 0.22 | 92 | |
| 20260831001503 | 67 | 0 | 0.0 | 0.0 | 0.02 | 0.26 | 0.22 | 92 | |
| 20260831001003 | 67 | 0 | 0.0 | 0.0 | 0.02 | 0.26 | 0.22 | 92 | |
| 20260831000503 | 67 | 180 | 0.0 | 2.0 | 0.07 | 0.26 | 0.22 | 91 | |
| 20260831000003 | 67 | 180 | 0.0 | 2.0 | 0.07 | 0.26 | 0.22 | 91 | |
| 20260830235503 | 66 | 180 | 0.0 | 2.0 | 0.09 | 0.26 | 0.22 | 91 | |
| 20260830235003 | 66 | 180 | 0.0 | 2.0 | 0.09 | 0.26 | 0.22 | 91 | |
| 20260830234503 | 66 | 180 | 0.0 | 1.0 | 0.09 | 0.26 | 0.22 | 90 | |
| 20260830234003 | 66 | 195 | 0.0 | 1.0 | 0.09 | 0.26 | 0.22 | 89 | |
| 20260830233503 | 66 | 214 | 0.0 | 1.0 | 0.08 | 0.25 | 0.21 | 89 | |
| 20260830233003 | 66 | 168 | 0.0 | 1.0 | 0.08 | 0.25 | 0.21 | 89 | |
| 20260830232503 | 66 | 209 | 0.0 | 4.0 | 0.08 | 0.25 | 0.21 | 88 | |
| 20260830232003 | 66 | 227 | 0.0 | 4.0 | 0.08 | 0.25 | 0.21 | 88 |